FW9341 Weather Reports


Display with metric or nautical units.
time (UTC)temp
F
wind
direction
speed
MPH
gust
MPH
rain 1hr
in
rain 24hr
in
rain mn
in
humidity
%
barometer
mb
20260507044530 33 0 0.0 0.0 0.00 0.00 0.00 75 1015.1
20260507043027 34 0 0.0 0.0 0.00 0.00 0.00 75 1015.1
20260507041528 33 0 0.0 0.0 0.00 0.00 0.00 69 1015.1
20260507040026 34 0 0.0 0.0 0.00 0.00 0.00 68 1015.1
20260507034526 35 0 0.0 1.0 0.00 0.00 0.00 69 1015.2
20260507033030 36 0 0.0 0.0 0.00 0.00 0.00 69 1015.2
20260507031530 36 0 0.0 0.0 0.00 0.00 0.00 66 1015.3
20260507030031 37 0 0.0 0.0 0.00 0.00 0.00 65 1015.4
20260507024528 37 0 0.0 0.0 0.00 0.00 0.00 63 1015.3
20260507023026 38 0 0.0 0.0 0.00 0.00 0.00 65 1015.3
20260507021530 39 0 0.0 0.0 0.00 0.00 0.00 65 1015.3
20260507020030 39 0 0.0 0.0 0.00 0.00 0.00 62 1015.1
20260507014531 40 0 0.0 0.0 0.00 0.00 0.00 62 1015.2
20260507013042 41 0 0.0 1.0 0.00 0.00 0.00 59 1015.2
20260507011526 42 0 0.0 2.0 0.00 0.00 0.00 61 1015.1
20260507010035 42 3 0.0 2.0 0.00 0.00 0.00 57 1015.3
20260507004529 42 318 0.0 2.0 0.00 0.00 0.00 58 1015.3
20260507003038 43 0 0.0 3.0 0.00 0.00 0.00 57 1015.5
20260507000033 44 297 0.0 5.0 0.00 0.00 0.00 52 1015.5
20260506234528 45 281 1.0 4.0 0.00 0.00 0.00 51 1015.6
20260506233028 46 327 1.0 9.0 0.00 0.00 0.00 51 1015.9
20260506231528 45 314 2.0 6.0 0.00 0.00 0.00 52 1016.0
20260506230028 45 322 1.0 7.0 0.00 0.00 0.00 52 1016.1
20260506224530 43 333 2.0 7.0 0.00 0.00 0.00 55 1016.1
20260506223041 44 317 3.0 5.0 0.00 0.00 0.00 53 1016.0
20260506221528 45 72 3.0 8.0 0.00 0.00 0.00 52 1016.1
20260506220026 45 321 2.0 10.0 0.00 0.00 0.00 52 1016.0
20260506214538 45 330 3.0 10.0 0.00 0.00 0.00 51 1016.0
20260506213029 45 300 3.0 5.0 0.00 0.00 0.00 52 1016.1
20260506211529 45 304 3.0 7.0 0.00 0.00 0.00 53 1016.2
20260506210030 45 110 1.0 7.0 0.00 0.00 0.00 54 1016.3
20260506204529 44 207 1.0 7.0 0.00 0.00 0.00 55 1016.5
20260506203033 44 248 2.0 8.0 0.00 0.00 0.00 51 1016.6
20260506201529 44 333 1.0 5.0 0.00 0.00 0.00 54 1016.5
20260506200027 44 255 2.0 12.0 0.00 0.00 0.00 56 1016.7
20260506194528 43 11 3.0 7.0 0.00 0.00 0.00 55 1016.8
20260506193027 42 349 2.0 6.0 0.00 0.00 0.00 57 1016.7
20260506191528 42 313 2.0 6.0 0.00 0.00 0.00 59 1016.8
20260506190028 41 307 3.0 6.0 0.00 0.00 0.00 60 1016.9
20260506184542 41 239 2.0 5.0 0.00 0.00 0.00 60 1016.9
20260506183037 41 336 2.0 9.0 0.00 0.00 0.00 60 1017.0
20260506181537 41 319 2.0 5.0 0.00 0.00 0.00 60 1017.1
20260506180034 40 296 1.0 4.0 0.00 0.00 0.00 62 1017.1
20260506174529 40 325 1.0 3.0 0.00 0.00 0.00 61 1017.3
20260506173028 39 324 2.0 6.0 0.00 0.00 0.00 63 1017.3
20260506171528 39 305 1.0 6.0 0.00 0.00 0.00 64 1017.5
20260506170028 38 4 1.0 3.0 0.00 0.00 0.00 64 1017.6
20260506164535 38 309 2.0 7.0 0.00 0.00 0.00 61 1017.5
20260506163030 38 333 2.0 4.0 0.00 0.00 0.00 61 1017.6
20260506161528 38 240 2.0 6.0 0.00 0.00 0.00 62 1017.7
20260506160026 38 304 1.0 4.0 0.00 0.00 0.00 64 1017.6
20260506154528 37 296 1.0 4.0 0.00 0.00 0.00 65 1017.5
20260506153027 37 278 2.0 5.0 0.00 0.00 0.00 61 1017.5
20260506151528 37 337 0.0 5.0 0.00 0.00 0.00 64 1017.4
20260506150031 37 275 1.0 4.0 0.00 0.00 0.00 63 1017.4
20260506144529 37 308 1.0 3.0 0.00 0.00 0.00 66 1017.5
20260506143032 36 316 1.0 5.0 0.00 0.00 0.00 65 1017.4
20260506141526 36 342 0.0 2.0 0.00 0.00 0.00 66 1017.4
20260506140029 36 0 0.0 3.0 0.00 0.00 0.00 66 1017.4
20260506134531 35 319 1.0 2.0 0.00 0.00 0.00 67 1017.3
20260506133028 35 0 0.0 1.0 0.00 0.00 0.00 67 1017.3
20260506131534 35 0 0.0 1.0 0.00 0.00 0.00 66 1017.2
20260506130027 35 0 0.0 1.0 0.00 0.00 0.00 68 1017.1
20260506124529 34 0 0.0 3.0 0.00 0.00 0.00 69 1016.8
20260506123030 34 0 0.0 2.0 0.00 0.00 0.00 71 1016.7
20260506121527 34 274 0.0 1.0 0.00 0.00 0.00 70 1016.4
20260506120026 34 314 0.0 2.0 0.00 0.00 0.00 70 1016.1
20260506114528 34 0 0.0 2.0 0.00 0.00 0.00 72 1015.9
20260506113037 34 311 0.0 2.0 0.00 0.00 0.00 71 1015.5
20260506111528 34 271 0.0 2.0 0.00 0.00 0.00 74 1015.5
20260506110026 34 267 0.0 1.0 0.00 0.00 0.00 74 1015.3
20260506104533 34 0 0.0 2.0 0.00 0.00 0.00 74 1015.5
20260506103029 33 0 0.0 1.0 0.00 0.00 0.00 74 1015.7
20260506101527 32 0 0.0 1.0 0.00 0.00 0.00 77 1015.7
20260506100028 32 0 0.0 0.0 0.00 0.00 0.00 77 1015.3
20260506094530 32 0 0.0 0.0 0.00 0.00 0.00 78 1015.1
20260506093028 31 0 0.0 0.0 0.00 0.00 0.00 78 1015.1
20260506091530 31 0 0.0 0.0 0.00 0.00 0.00 79 1015.2
20260506090032 30 0 0.0 0.0 0.00 0.00 0.00 78 1015.2
20260506084525 30 0 0.0 0.0 0.00 0.00 0.00 79 1015.1
20260506083027 29 0 0.0 0.0 0.00 0.00 0.00 79 1014.9
20260506081526 29 0 0.0 0.0 0.00 0.00 0.00 78 1014.8
20260506073030 30 0 0.0 1.0 0.00 0.00 0.00 77 1015.0
20260506071536 30 0 0.0 1.0 0.00 0.00 0.00 79 1014.7
20260506061528 31 0 0.0 0.0 0.00 0.00 0.00 78 1015.0